BIROS

Last updated on Fri Dec 19 2025 00:02:33 GMT+0000 (Coordinated Universal Time)

1 41604U 16040F 25352.64014167 .00189106 15181-4 57739-3 0 9991 2 41604 97.0683 24.3187 0003685 135.4463 224.7109 15.91957755529660
UTC large
Height (km)
Speed (km/s)
/
Latitude / Longitude
Inclination (degrees)
Orbital Period (minutes)
Azimuth
Elevation
Range (km)
Doppler Factor

Next 0 passes for location: London (51.5072 / 0.1276)

Sorry there are no passes over London.